Regional Weather Roundup
Issued by NWS

Home | Current Version | Previous Version | Text Only | Print | Product List | Glossary Off
Versions: 1 2 3 4 5 6 7 8 9 10 11 12 13 14 15 16 17 18 19 20 21 22 23 24 25 26 27 28 29 30 31 32 33 34 35 36 37 38 39 40 41 42 43 44 45 46 47 48 49 50

000
ASUS43 KMKX 210721
RWRWI

WISCONSIN REGIONAL WEATHER ROUNDUP
NATIONAL WEATHER SERVICE MILWAUKEE/SULLIVAN WI
200 AM CDT SUN SEP 21 2014

NOTE: "FAIR" INDICATES FEW OR NO CLOUDS BELOW 12,000 FEET WITH NO
SIGNIFICANT WEATHER AND/OR OBSTRUCTIONS TO VISIBILITY.

WIZ001-002-006>008-014>016-023>028-210800-
NORTHWEST WISCONSIN

CITY           SKY/WX    TMP DP  RH WIND       PRES   REMARKS
SUPERIOR ARPT  CLOUDY    54  51  92 NW12      29.78R
ASHLAND        CLOUDY    54  52  93 N9        29.73R
HAYWARD        LGT RAIN  53  52  96 VRB7      29.73R
SIREN          LGT RAIN  50  48  93 NW13G18   29.81R
RICE LAKE      CLOUDY    51  48  89 W15G22    29.78R
LADYSMITH      LGT RAIN  54  52  93 W14       29.73R
EAU CLAIRE     CLOUDY    56  48  74 W15G23    29.75S
MENOMONIE      CLOUDY    56  48  74 W18G26    29.79R
NEW RICHMOND   MOCLDY    53  46  77 NW12G21   29.83R
OSCEOLA        PTCLDY    54  47  78 NW12G17   29.86R
$$

WIZ003>005-009-010-017-018-210800-
NORTH CENTRAL WISCONSIN

CITY           SKY/WX    TMP DP  RH WIND       PRES   REMARKS
WOODRUFF       RAIN      52  51  93 W5        29.69S
RHINELANDER    CLOUDY    52  51  97 NW3       29.68F
EAGLE RIVER    MOCLDY    52  51  96 N7        29.67S
LAND O LAKES   HVY RAIN  52  51  96 NW6       29.70R
PHILLIPS       LGT RAIN  51  51  97 NW6       29.69S
TOMAHAWK       RAIN      51  50  96 CALM      29.69S
MEDFORD        RAIN      52  51  95 W13G18    29.69F
MERRILL        LGT RAIN  53  53  99 W6        29.68F
$$

WIZ029-030-035-036-043>047-210800-
CENTRAL WISCONSIN

CITY           SKY/WX    TMP DP  RH WIND       PRES   REMARKS
WAUSAU         LGT RAIN  55  53  93 W10       29.67F
MOSINEE        CLOUDY    54  54 100 W10       29.70F
MARSHFIELD     CLOUDY    55  51  86 W17G25    29.71F
STEVENS POINT  CLOUDY    54  51  91 W9G17     29.70F
WAUPACA        CLOUDY    58  56  95 W9        29.70F
WAUTOMA        PTCLDY    57  54  90 W14       29.72S
WISC RAPIDS    MOCLDY    55  52  89 W10       29.73F
CAMP DOUGLAS   CLEAR     54  54 100 W13       29.74F
$$

WIZ011>013-019>022-031-037>040-048>050-210800-
NORTHEAST WISCONSIN

CITY           SKY/WX    TMP DP  RH WIND       PRES   REMARKS
ANTIGO         CLOUDY    52  51  97 W7        29.68F
STURGEON BAY   CLOUDY    55  52  88 NE9       29.64R
GREEN BAY      PTCLDY    56  55  97 W9        29.66F
MANITOWOC      PTCLDY    58  55  90 W9        29.65S
APPLETON       PTCLDY    54  54 100 W9        29.69S
CLINTONVILLE   CLOUDY    54  54 100 W6        29.67F
OSHKOSH        MOCLDY    58  55  90 W14       29.69S
$$

WIZ032>034-041-042-053>061-210800-
SOUTHWEST WISCONSIN

CITY           SKY/WX    TMP DP  RH WIND       PRES   REMARKS
LA CROSSE      CLEAR     61  50  67 NW10      29.79F
SPARTA         CLEAR     54  50  87 W5        29.77F
VIROQUA        FAIR      54  53  97 W12G18    29.80F
BOSCOBEL       CLEAR     59  52  77 SW5       29.82F
PRAIRIE DU CHI CLEAR     56  52  86 W3        29.84F
PLATTEVILLE    FAIR      56  53  91 W8        29.84F
$$

WIZ056-057-062-063-064-067-068-210800-
SOUTH CENTRAL WISCONSIN

CITY           SKY/WX    TMP DP  RH WIND       PRES   REMARKS
BARABOO/DELLS  FAIR      55  50  85 W8        29.76S
LONE ROCK      CLEAR     60  53  77 W6        29.79F
WATERTOWN      CLOUDY    58  58  97 W12       29.73R
MADISON        CLEAR     58  52  80 NW9G18    29.76S
MIDDLETON      FAIR      58  54  86 W12       29.78R
MONROE         CLEAR     57  54  88 W17G23    29.80R
JANESVILLE     PTCLDY    61  54  77 W15       29.77R
$$

WIZ051-052-058>065-066-070>072-210800-
SOUTHEAST WISCONSIN

CITY           SKY/WX    TMP DP  RH WIND       PRES   REMARKS
MILWAUKEE      MOCLDY    62  57  83 W18G26    29.69R
WAUKESHA       CLOUDY    57  55  94 W16       29.72S
MILWAUKEE/TIMM MOCLDY    59  55  88 W12       29.69F
RACINE         CLOUDY    63  59  87 W10G20    29.70R
BURLINGTON     CLOUDY    60  57  89 W13G24    29.73R
KENOSHA        CLOUDY    63  60  90 W13G22    29.71R
FOND DU LAC    MOCLDY    59  55  87 W15       29.70S
SHEBOYGAN      CLEAR     57  54  89 W12       29.66S
WEST BEND      PTCLDY    57  54  88 W13G18    29.68F
JUNEAU         CLOUDY    58  56  92 W10G20    29.73F
$$

LSZ147-162-210800-
LAKE SUPERIOR

STATION/POSITION TIME  TEMP    WIND        PRES    WAVE
                       AIR SEA DIR/SP/G            HT/PER
                 (UTC) (F)     (DEG/KT/KT) (MB)    (FT/S)
W MID LAKE BUOY  0650   49 46   20/ 17/ 19 1007.1R   1/ 3
DEVILS ISLAND    0700   51      50/ 26/ 30 1007.9R
PORT WING        0600   55     320/  7/  8 1007.1
SAXON HARBOR     0640   56      10/ 11/ 13 1006.4R
$$

LMZ867-665-643>646-210800-
LAKE MICHIGAN

STATION/POSITION TIME  TEMP    WIND        PRES    WAVE
                       AIR SEA DIR/SP/G            HT/PER
                 (UTC) (F)     (DEG/KT/KT) (MB)    (FT/S)
N MID LAKE BUOY  0650   57 58   30/ 14/ 16 1003.2F   2/ 7
NORTHPORT PIER   0700   56      70/  2/ 13 1004.1F
SISTER BAY       0612             CALM       N/A
KEWAUNEE LAKESHO 0700   56     280/  3/  4 1002.5F
SHEBOYGAN LAKESH 0700   59 54  280/ 12/ 14 1004.2R
PORT WASHINGTON  0600   61     290/  4/  9 1005.4F
ATWATER BUOY     0700   60     270/ 14/ 16 1006.1S
MILWAUKEE LAKESH 0700   62     280/ 11/ 16   N/A
S MID LAKE BUOY  0650   63 63  270/ 14/ 16 1004.4R   2/ 3
KENOSHA   LAKESH 0700   64     280/ 13/ 17 1005.8R
$$

TC  - TEMPERATURE IN CELSIUS
VSB - VISIBILITY IN STATUTE MILES
WCI - WIND CHILL INDEX
HX  - HEAT INDEX



USA.gov is the U.S. government's official web portal to all federal, state and local government web resources and services.